EW9311 Weather Reports


Display with metric or nautical units.
time (UTC)temp
F
wind
direction
speed
MPH
gust
MPH
rain 1hr
in
rain 24hr
in
rain mn
in
humidity
%
barometer
mb
20260905134541 56 0 0.0 0.0 0.00 0.02 0.02 89 1017.7
20260905133033 56 0 0.0 0.0 0.00 0.02 0.02 89 1017.4
20260905131535 57 0 0.0 0.0 0.00 0.02 0.02 86 1017.4
20260905130041 60 0 0.0 0.0 0.01 0.02 0.02 80 1017.3
20260905124536 61 0 0.0 11.0 0.01 0.02 0.02 71 1016.9
20260905123036 61 0 0.0 2.0 0.01 0.02 0.02 72 1016.9
20260905121543 61 0 0.0 2.0 0.00 0.01 0.01 76 1017.2
20260905120036 60 0 0.0 4.0 0.01 0.01 0.01 79 1017.3
20260905114537 57 0 0.0 0.0 0.01 0.01 0.01 87 1017.1
20260905113034 57 0 0.0 0.0 0.01 0.01 0.01 86 1017.3
20260905111536 59 0 0.0 0.0 0.00 0.00 0.00 82 1017.4
20260905110040 57 142 0.0 3.0 0.00 0.00 0.00 81 1016.8
20260905104536 54 0 0.0 0.0 0.00 0.00 0.00 91 1016.6
20260905103034 54 0 0.0 0.0 0.00 0.00 0.00 91 1016.5
20260905101534 54 0 0.0 0.0 0.00 0.00 0.00 91 1016.6
20260905100041 54 0 0.0 0.0 0.00 0.00 0.00 91 1016.9
20260905094536 54 0 0.0 0.0 0.00 0.00 0.00 90 1016.8
20260905093035 55 0 0.0 0.0 0.00 0.00 0.00 89 1016.9
20260905091536 55 0 0.0 0.0 0.00 0.00 0.00 88 1017.0
20260905090038 55 0 0.0 0.0 0.00 0.00 0.00 88 1017.1
20260905084535 55 0 0.0 1.0 0.00 0.00 0.00 88 1017.3
20260905083034 55 0 0.0 0.0 0.00 0.00 0.00 87 1017.9
20260905081536 55 0 0.0 0.0 0.00 0.00 0.00 87 1018.1
20260905080035 55 0 0.0 0.0 0.00 0.00 0.00 87 1018.4
20260905074536 55 0 0.0 0.0 0.00 0.00 0.00 87 1018.6
20260905073041 56 0 0.0 0.0 0.00 0.00 0.00 88 1018.8
20260905071536 56 0 0.0 0.0 0.00 0.00 0.00 86 1019.1
20260905070040 56 0 0.0 0.0 0.00 0.00 0.00 85 1018.9
20260905064533 56 0 0.0 0.0 0.00 0.00 0.00 86 1019.1
20260905063035 57 0 0.0 0.0 0.00 0.00 0.00 84 1019.2
20260905061538 57 0 0.0 0.0 0.00 0.00 0.00 82 1018.9
20260905060033 57 0 0.0 0.0 0.00 0.00 0.00 81 1018.8
20260905054538 58 0 0.0 0.0 0.00 0.00 0.00 78 1018.8
20260905053036 58 0 0.0 0.0 0.00 0.00 0.00 77 1019.1
20260905051537 59 0 0.0 0.0 0.00 0.00 0.00 78 1019.2
20260905050037 59 0 0.0 0.0 0.00 0.00 0.00 80 1019.2
20260905044536 59 0 0.0 0.0 0.00 0.00 0.00 81 1019.1
20260905043034 60 0 0.0 0.0 0.00 0.00 0.00 81 1019.3
20260905041547 60 0 0.0 0.0 0.00 0.00 0.00 81 1019.4
20260905040035 60 0 0.0 0.0 0.00 0.00 0.00 80 1019.4
20260905034541 61 0 0.0 0.0 0.00 0.00 0.00 79 1019.3
20260905033035 61 0 0.0 0.0 0.00 0.00 0.00 77 1019.6
20260905031536 61 0 0.0 0.0 0.00 0.00 0.00 77 1019.9
20260905030034 61 0 0.0 0.0 0.00 0.00 0.00 75 1020.0
20260905024533 61 0 0.0 0.0 0.00 0.00 0.00 75 1020.4
20260905023035 62 0 0.0 0.0 0.00 0.00 0.00 74 1020.2
20260905021537 62 0 0.0 0.0 0.00 0.00 0.00 72 1020.3
20260905020035 62 0 0.0 0.0 0.00 0.00 0.00 71 1020.6
20260905014532 62 0 0.0 0.0 0.00 0.00 0.00 70 1021.0
20260905013044 62 0 0.0 0.0 0.00 0.00 0.00 71 1021.0
20260905011537 62 0 0.0 0.0 0.00 0.00 0.00 70 1021.0
20260905010040 62 0 0.0 0.0 0.00 0.00 0.00 73 1021.0
20260905004544 62 0 0.0 0.0 0.00 0.00 0.00 73 1021.1
20260905003032 62 0 0.0 0.0 0.00 0.00 0.00 72 1021.3
20260905001535 62 0 0.0 0.0 0.00 0.00 0.00 73 1021.6
20260905000045 62 0 0.0 0.0 0.00 0.00 0.00 73 1021.8
20260904234535 62 0 0.0 0.0 0.00 0.00 0.00 72 1021.6
20260904233032 62 0 0.0 1.0 0.00 0.00 0.00 71 1021.8
20260904231536 63 0 0.0 0.0 0.00 0.00 0.00 72 1021.7
20260904230034 63 0 0.0 1.0 0.00 0.00 0.00 70 1021.7
20260904224533 62 0 0.0 0.0 0.00 0.00 0.00 71 1022.0
20260904223032 61 0 0.0 0.0 0.00 0.00 0.00 74 1022.1
20260904221535 61 0 0.0 0.0 0.00 0.00 0.00 74 1022.5
20260904220036 61 0 0.0 1.0 0.00 0.00 0.00 72 1022.8
20260904214534 61 0 0.0 0.0 0.00 0.00 0.00 75 1022.6
20260904213039 60 0 0.0 0.0 0.00 0.00 0.00 75 1022.7
20260904211535 58 0 0.0 0.0 0.00 0.00 0.00 78 1022.9
20260904210033 58 0 0.0 0.0 0.00 0.00 0.00 83 1023.2
20260904204536 57 0 0.0 0.0 0.00 0.00 0.00 83 1023.1
20260904203036 56 0 0.0 0.0 0.00 0.00 0.00 85 1023.0
20260904201538 56 0 0.0 0.0 0.00 0.00 0.00 86 1023.0
20260904200034 56 0 0.0 0.0 0.00 0.00 0.00 86 1023.1
20260904194536 55 0 0.0 0.0 0.00 0.00 0.00 87 1023.0
20260904193033 55 0 0.0 0.0 0.00 0.00 0.00 86 1023.1
20260904191535 55 0 0.0 0.0 0.00 0.00 0.00 85 1023.3
20260904190037 55 0 0.0 0.0 0.00 0.00 0.00 85 1023.0
20260904184536 54 0 0.0 0.0 0.00 0.00 0.00 84 1023.2
20260904183034 54 0 0.0 0.0 0.00 0.00 0.00 85 1023.4
20260904181538 53 0 0.0 0.0 0.00 0.00 0.00 85 1023.2
20260904180048 53 0 0.0 0.0 0.00 0.00 0.00 87 1023.1
20260904174542 53 0 0.0 0.0 0.00 0.00 0.00 88 1023.1
20260904173041 53 0 0.0 0.0 0.00 0.00 0.00 89 1023.3
20260904171605 53 0 0.0 1.0 0.00 0.00 0.00 89 1023.6
20260904170034 52 0 0.0 0.0 0.00 0.00 0.00 90 1023.5
20260904164534 52 0 0.0 0.0 0.00 0.00 0.00 90 1023.3
20260904163032 52 0 0.0 0.0 0.00 0.00 0.00 90 1023.0
20260904161549 52 0 0.0 0.0 0.00 0.00 0.00 89 1023.1
20260904160036 51 0 0.0 0.0 0.00 0.00 0.00 90 1023.1
20260904154542 51 0 0.0 0.0 0.00 0.00 0.00 90 1023.2
20260904153041 52 0 0.0 0.0 0.00 0.00 0.00 90 1023.1
20260904151535 52 0 0.0 0.0 0.00 0.00 0.00 89 1023.1
20260904150035 52 0 0.0 0.0 0.00 0.00 0.00 89 1023.2
20260904144537 52 0 0.0 0.0 0.00 0.00 0.00 91 1023.5
20260904143034 51 0 0.0 0.0 0.00 0.00 0.00 91 1023.6
20260904141536 51 0 0.0 0.0 0.00 0.00 0.00 90 1023.3
20260904140037 51 0 0.0 0.0 0.00 0.00 0.00 89 1023.4